EHI
2 1 0 0 0 0 0 0 0 0 0 0 0 0 0 0 0 0 0 0 0 0 0 0 0 0 0 0 0 0 0 0 0 0 0 0 0 0 0 0 0 0 0
1 1 1 0 0 0 0 0 0 0 0 0 0 0 0 0 0 0 0 0 0 0 0 0 0 0 0 0 0 0 0 0 0 0 0 0 0 0 0 0 0 0 0
1 2 1 0 0 0 0 0 0 0 0 0 0 0 0 0 0 0 0 0 0 0 0 0 0 0 0 0 0 0 0 0 0 0 0 0 0 0 0 0 0 0 0
1 1 1 0 0 0 0 0 0 0 0 0 0 0 0 0 0 0 0 0 0 0 0 0 0 0 0 0 0 0 0 0 0 0 0 0 0 0 0 0 0 0 0
0 1 1 1 0 0 0 0 0 0 0 0 0 0 0 0 0 0 0 0 0 0 0 0 0 0 0 0 0 0 0 0 0 0 0 0 0 0 0 0 0 0 0
0 0 1 1 1 0 0 0 0 0 0 0 0 0 0 0 0 0 0 0 0 0 0 0 0 0 0 0 0 0 0 0 0 0 0 0 0 0 0 0 0 0 0
0 0 1 2 1 0 0 0 0 0 0 0 0 0 0 0 0 0 0 0 0 0 0 0 0 0 0 0 0 0 0 0 0 0 0 0 0 0 0 0 0 0 0
0 0 1 2 2 1 0 0 0 0 0 0 0 0 0 0 0 0 0 0 0 0 0 0 0 0 0 0 0 0 0 0 0 0 0 0 0 0 0 0 0 0 0
0 0 0 1 2 2 1 0 0 0 0 0 0 0 0 0 0 0 0 0 0 0 0 0 0 0 0 0 0 0 0 0 0 0 0 0 0 0 0 0 0 0 0
0 0 0 1 2 2 1 0 0 0 0 0 0 0 0 0 0 0 0 0 0 0 0 0 0 0 0 0 0 0 0 0 0 0 0 0 0 0 0 0 0 0 0
0 0 0 1 2 3 1 0 0 0 0 0 0 0 0 0 0 0 0 0 0 0 0 0 0 0 0 0 0 0 0 0 0 0 0 0 0 0 0 0 0 0 0
0 0 0 1 2 3 2 1 0 0 0 0 0 0 0 0 0 0 0 0 0 0 0 0 0 0 0 0 0 0 0 0 0 0 0 0 0 0 0 0 0 0 0
0 0 0 0 1 2 2 1 0 0 0 0 0 0 0 0 0 0 0 0 0 0 0 0 0 0 0 0 0 0 0 0 0 0 0 0 0 0 0 0 0 0 0
0 0 0 0 0 1 1 0 0 0 0 0 0 0 0 0 0 0 0 0 0 0 0 0 0 0 0 0 0 0 0 0 0 0 0 0 0 0 0 0 0 0 0
0 0 0 0 0 0 0 0 0 0 0 0 0 0 0 0 0 0 0 0 0 0 0 0 0 0 0 0 0 0 0 0 0 0 0 0 0 0 0 0 0 0 0
0 0 0 0 0 0 0 0 0 0 0 0 0 0 0 0 0 0 0 0 0 0 0 0 0 0 0 0 0 0 0 0 0 0 0 0 0 0 0 0 0 0 0
0 0 0 0 0 0 0 0 0 0 0 0 0 0 0 0 0 0 0 0 0 0 0 0 0 0 0 0 0 0 0 0 0 0 0 0 0 0 0 0 0 0 0
0 0 0 0 0 0 0 0 0 0 0 0 0 0 0 0 0 0 0 0 0 0 0 0 0 0 0 0 0 0 0 0 0 0 0 0 0 0 0 0 0 0 0
0 0 0 0 0 0 0 0 0 0 0 0 0 0 0 0 0 0 0 0 0 0 0 0 0 0 0 0 0 0 0 0 0 0 0 0 0 0 0 0 0 0 0
0 0 0 0 0 0 0 0 0 0 0 0 0 0 0 0 0 0 0 0 0 0 0 0 0 0 0 0 0 0 0 0 0 0 0 0 0 0 0 0 0 0 0
0 0 0 0 0 0 0 0 0 0 0 0 0 0 0 0 0 0 0 0 0 0 0 0 0 0 0 0 0 0 0 0 0 0 0 0 0 0 0 0 0 0 0
0 0 0 0 0 0 0 0 0 0 0 0 0 0 0 0 0 0 0 0 0 0 0 0 0 0 0 0 0 0 0 0 0 0 0 0 0 0 0 0 0 0 0
0 0 0 0 0 0 0 0 0 0 0 0 0 0 0 0 0 0 0 0 0 0 0 0 0 0 0 0 0 0 0 0 0 0 0 0 0 0 0 0 0 0 0
0 0 0 0 0 0 0 0 0 0 0 0 0 0 0 0 0 0 0 0 0 0 0 0 0 0 0 0 0 0 0 0 0 0 0 0 0 0 0 0 0 0 0
0 0 0 0 0 0 0 0 0 0 0 0 0 0 0 0 0 0 0 0 0 0 0 0 0 0 0 0 0 0 0 0 0 0 0 0 0 0 0 0 0 0 0
0 0 0 0 0 0 0 0 0 0 0 0 0 0 0 0 0 0 0 0 0 0 0 0 0 0 0 0 0 0 0 0 0 0 0 0 0 0 0 0 0 0 0
Wind_Speed
2 2 2 1 1 1 2 1 1 1 1 0 1 2 2 2 2 1 1 2 2 2 2 2 2 3 3 3 4 4 4 5 5 5 6 7 7 8 8 9 8 8 9
3 3 2 2 1 1 2 2 2 2 1 1 1 2 2 2 2 2 1 2 3 3 3 3 4 4 4 4 5 5 5 5 6 6 7 7 8 8 8 9 9 10 10
3 3 3 2 2 2 2 2 2 1 1 1 1 2 2 2 2 2 2 1 1 2 3 4 4 5 5 5 6 6 6 7 7 7 8 9 9 8 9 9 10 11 11
3 3 3 2 1 1 2 2 2 2 1 1 1 2 2 2 2 2 2 2 1 1 2 3 4 5 6 6 7 7 7 8 8 8 9 9 9 9 10 10 11 11 11
3 3 3 2 2 2 1 2 1 2 1 1 2 2 2 2 2 2 2 2 2 2 1 2 3 4 6 7 8 8 8 8 9 9 9 10 10 10 10 10 11 12 12
3 3 3 3 3 2 2 2 2 1 1 1 1 2 2 2 2 2 3 2 2 2 2 1 1 3 5 7 8 9 9 9 9 10 10 10 10 10 10 11 11 12 12
3 3 2 3 3 3 2 2 2 1 1 1 1 1 2 2 2 2 2 2 2 2 2 2 1 2 2 6 8 9 10 10 10 10 10 10 11 11 11 11 11 12 13
4 3 3 3 3 3 3 2 2 1 1 1 2 1 1 2 2 2 2 2 2 1 2 2 2 2 2 2 5 8 10 11 11 11 11 11 11 11 11 11 12 12 13
3 3 3 3 2 3 3 3 3 3 3 2 2 3 2 3 2 2 2 2 2 2 2 2 3 3 3 2 3 6 8 10 11 11 12 12 12 12 12 12 12 13 13
3 3 3 3 3 3 3 3 3 2 3 3 2 2 2 2 2 2 2 2 2 2 3 3 3 3 3 2 4 6 8 9 11 11 12 13 13 13 13 13 13 13 13
3 3 3 3 3 3 4 3 2 2 2 3 3 2 1 1 1 2 3 2 2 2 3 3 2 2 3 3 3 5 8 9 10 11 12 12 13 13 13 14 13 13 13
2 3 3 3 3 3 4 3 3 3 3 3 2 2 2 2 2 2 3 3 3 3 3 2 2 3 2 3 4 7 8 9 10 11 11 12 13 13 14 14 13 13 13
2 3 3 3 3 3 3 3 3 4 3 3 3 3 2 2 2 2 2 2 3 3 2 2 3 2 2 2 3 7 8 9 9 10 11 11 12 13 13 13 14 13 13
3 4 4 4 3 3 3 3 3 3 3 3 3 3 2 3 2 2 2 2 2 3 3 3 2 2 2 2 4 6 5 9 9 10 10 11 11 12 12 12 13 12 12
3 3 3 3 3 3 3 3 3 3 3 3 3 3 3 2 2 2 2 3 3 3 5 3 2 2 2 2 4 3 4 8 9 9 10 10 10 11 11 10 11 11 11
3 3 3 3 3 3 3 3 2 2 3 3 3 3 2 2 2 2 2 2 2 3 4 3 3 3 3 4 5 4 5 9 9 9 10 10 10 10 10 10 10 10 10
4 4 4 4 4 3 3 3 3 3 3 3 3 3 3 3 2 2 2 2 2 2 4 4 3 3 3 4 5 4 4 4 5 9 10 11 10 9 9 9 9 9 10
3 4 3 3 3 3 3 3 3 3 3 3 3 4 4 3 3 3 3 3 3 3 4 6 4 3 4 4 4 5 4 4 4 8 10 10 10 10 9 8 8 8 8
2 2 3 3 3 3 3 3 3 3 3 3 3 4 4 4 3 3 3 3 3 2 3 4 5 3 3 3 4 5 4 4 5 6 8 8 9 10 8 7 7 6 7
2 2 2 2 2 2 2 2 2 2 1 2 2 2 3 4 4 3 3 3 3 3 3 3 4 3 3 2 2 3 4 4 4 5 5 6 8 9 8 7 7 6 6
0 0 0 1 1 1 2 2 2 2 2 2 2 2 3 4 5 4 3 3 3 2 2 3 3 3 3 2 3 3 4 5 5 3 3 4 4 4 4 6 7 6 6
1 1 0 0 1 1 2 2 2 2 2 2 2 2 2 2 4 4 4 4 4 3 3 3 3 4 4 4 3 3 3 4 4 2 2 5 3 4 4 3 6 6 6
0 1 1 1 1 1 2 2 1 1 2 2 2 2 2 2 2 1 2 3 3 4 4 3 4 5 5 4 4 4 4 4 5 4 3 4 3 4 4 4 7 6 5
0 1 1 2 2 2 2 2 1 1 1 1 2 2 3 2 2 1 1 2 2 2 3 3 4 5 4 4 4 4 4 4 4 3 2 3 3 3 4 3 5 4 5
1 1 1 1 1 2 2 2 1 0 0 1 2 2 3 3 3 2 1 2 2 2 3 4 5 5 5 5 3 2 2 2 3 3 1 2 2 3 3 2 3 4 5
1 1 2 2 2 2 2 2 2 1 1 1 1 2 2 2 2 1 1 2 3 3 2 3 3 4 4 3 3 2 2 2 2 3 2 1 2 2 3 2 2 2 3
Wind_Direction
152 149 152 161 151 150 157 162 152 152 166 181 190 170 169 176 186 197 226 211 223 235 245 261 278 291 299 306 310 311 305 306 306 311 311 308 309 311 312 315 311 313 313
162 156 150 161 162 174 179 177 172 168 194 197 221 202 190 184 188 196 204 233 232 235 248 261 271 281 287 292 301 309 305 300 302 301 305 304 301 302 306 308 312 308 308
158 158 151 168 186 181 176 167 160 150 173 201 240 236 206 194 189 194 200 220 245 255 254 258 268 277 283 288 296 302 303 302 298 299 299 301 297 299 302 305 306 308 306
158 157 160 175 184 167 167 173 166 164 199 208 236 247 223 205 205 201 198 208 218 243 264 266 273 281 288 293 295 297 299 302 298 296 295 297 296 295 298 302 304 304 306
160 162 168 176 161 162 167 181 169 172 198 231 245 249 228 215 215 206 205 207 210 218 240 276 282 290 292 293 295 298 299 301 301 298 296 295 298 296 298 301 303 303 304
162 160 172 170 164 160 170 178 181 186 195 218 258 284 263 244 227 211 214 215 215 218 223 248 274 292 295 294 296 296 298 300 302 302 297 295 298 300 299 299 301 301 301
172 170 180 180 176 175 183 184 175 183 215 153 89 325 311 274 244 233 220 215 229 232 222 228 245 261 282 290 294 295 298 298 299 300 302 301 298 301 299 298 300 301 301
184 188 189 189 186 181 183 187 173 179 220 186 156 183 283 302 281 250 236 219 225 234 244 255 254 252 260 272 289 295 296 297 298 299 301 302 301 301 304 302 301 301 301
195 200 197 189 192 188 198 204 197 189 208 240 199 179 183 224 275 276 247 233 224 233 252 254 247 250 262 270 277 290 296 297 297 300 303 305 304 303 305 304 304 303 303
202 201 197 197 198 203 207 215 212 210 193 220 225 208 196 177 188 265 288 267 257 250 247 259 256 258 262 265 278 291 295 294 295 299 302 305 304 304 305 308 305 304 302
212 206 203 206 208 214 216 215 213 221 215 215 203 192 205 213 205 198 255 276 279 260 253 249 246 253 255 258 267 284 292 294 293 297 300 304 305 306 306 307 304 303 302
219 212 212 215 218 219 222 218 209 210 225 222 206 189 187 188 201 197 232 263 272 272 265 256 248 252 255 262 274 293 295 298 299 301 305 305 305 307 305 306 305 304 304
218 214 217 219 221 220 220 217 209 212 219 223 210 207 206 212 202 199 217 255 274 287 282 267 248 251 272 271 274 292 294 299 301 303 305 305 305 305 304 305 308 305 307
220 214 215 217 220 220 220 212 211 215 217 216 220 212 209 214 207 202 196 209 273 286 278 273 273 256 273 277 286 297 294 301 300 301 303 305 305 304 303 302 306 304 306
226 213 218 217 215 210 212 209 211 215 213 215 213 216 219 217 208 211 202 197 206 258 270 271 277 278 288 281 293 290 288 296 298 301 301 303 307 306 303 301 302 305 307
217 210 217 215 214 212 214 211 212 214 212 223 212 205 218 218 205 207 206 215 214 225 260 269 267 286 300 299 301 296 286 300 298 300 300 303 305 307 306 304 301 304 305
201 204 214 214 213 211 209 208 215 213 214 220 213 201 204 205 205 206 206 208 224 222 253 277 277 285 291 301 304 297 290 286 293 301 301 303 303 308 306 304 300 302 303
208 202 209 215 213 212 209 205 215 222 219 217 211 198 203 201 213 208 205 210 222 225 236 267 283 287 284 288 297 295 300 298 289 296 300 302 304 308 305 304 303 301 305
216 208 208 216 219 216 216 217 213 219 227 225 215 207 206 200 224 229 215 218 225 236 240 254 274 282 285 295 305 301 298 295 298 301 301 301 303 307 312 312 309 303 308
215 214 216 215 213 214 212 209 206 200 205 218 215 209 205 204 215 223 230 226 227 238 245 254 270 284 285 293 298 303 307 306 303 307 306 306 308 311 315 319 317 310 307
294 206 211 228 224 232 222 209 197 198 197 216 226 217 213 216 219 226 234 230 223 234 249 261 271 283 287 300 293 296 298 305 299 287 299 300 305 305 308 313 317 320 324
9 16 345 235 260 269 269 268 235 202 205 215 229 230 224 232 235 242 259 262 252 241 246 253 268 273 278 274 279 289 299 306 298 298 307 299 300 296 299 298 313 326 334
49 355 321 303 289 284 292 287 281 251 216 213 221 224 232 239 262 244 272 291 292 286 270 252 257 264 268 264 273 278 276 283 278 286 298 286 287 287 294 305 316 326 337
5 327 314 309 316 320 331 333 324 268 226 228 227 227 224 231 243 238 247 264 275 285 283 270 246 257 262 259 253 265 268 289 290 286 282 280 288 287 303 304 318 341 352
349 335 322 310 306 316 328 314 305 237 235 269 255 236 232 225 234 250 245 256 283 294 304 298 295 293 293 292 287 283 285 292 298 290 280 278 289 302 303 303 320 345 350
322 332 319 306 284 291 309 305 287 218 219 247 260 246 242 242 238 261 226 241 263 278 293 313 319 320 312 302 310 274 252 259 287 286 280 300 295 326 318 307 314 317 331